Overview Statistics Trail Chart Weather Telemetry Raw packets
 

This is the latest recevied weather packets stored in our database for station/object KO4DYK. If no packets are shown the sender has not sent any weather packets the latest 10 day(s).

<< 108 109 110 111 112 113 114 >>
Time Temp. Humidity Pressure Rain* Wind** Luminosity Snow
1787835786 21.67° C 99% 1017.6 hPa 0 mm - 64 W/m² -
1787835485 21.67° C 99% 1017.6 hPa 0 mm - 84 W/m² -
1787835181 21.11° C 99% 1017.6 hPa 0 mm - 88 W/m² -
1787834881 21.11° C 99% 1017.7 hPa 0 mm - 106 W/m² -
1787834580 21.11° C 99% 1017.5 hPa 0 mm - 97 W/m² -
1787834276 21.11° C 99% 1017.6 hPa 0 mm - 56 W/m² -
1787833972 21.11° C 99% 1017.5 hPa 0 mm - 53 W/m² -
1787833672 20.56° C 99% 1017.1 hPa 0 mm - 58 W/m² -
1787833367 20.56° C 99% 1017.4 hPa 0 mm - 45 W/m² -
1787833062 20.56° C 99% 1017.1 hPa 0 mm - 45 W/m² -
1787832758 20.56° C 99% 1016.9 hPa 0 mm - 36 W/m² -
1787832458 20.56° C 99% 1016.9 hPa 0 mm - 36 W/m² -
1787832158 20.56° C 99% 1016.9 hPa 0 mm - 29 W/m² -
1787831855 20.56° C 99% 1016.8 hPa 0 mm - 22 W/m² -
1787831551 20.56° C 99% 1016.6 hPa 0 mm - 18 W/m² -
1787831249 20.56° C 99% 1016.9 hPa 0 mm - 15 W/m² -
1787830946 20.56° C 99% 1016.7 hPa 0 mm - 10 W/m² -
1787830646 20.56° C 99% 1016.6 hPa 0 mm - 6 W/m² -
1787830340 20.56° C 99% 1016.7 hPa 0 mm - 2 W/m² -
1787830039 20.56° C 99% 1016.5 hPa 0 mm - 0 W/m² -
1787829739 20.56° C 99% 1016.5 hPa 0 mm - 0 W/m² -
1787829434 20° C 99% 1016.4 hPa 0 mm - 0 W/m² -
1787829130 20° C 99% 1016.3 hPa 0 mm - 0 W/m² -
1787828825 20° C 99% 1016.1 hPa 0 mm - 0 W/m² -
1787828523 20° C 99% 1016 hPa 0 mm - 0 W/m² -

* Rain latest hour (hover to see other rain measurements)
** Current wind speed in m/s (hover to see current wind gust speed)